#timestamp,LO_Frequency,Hit,StdDev 
1512478815.3,286047000.3,N
1512478835.1,286046997.0,N
1512478855.8,286047001.0,N
1512478875.7,286047000.1,N
1512478895.5,286047000.1,N
1512478915.3,286047000.1,N
1512478935.2,286047004.1,N
1512478955.9,286047001.7,N
1512478975.7,286047001.3,N
1512478995.6,286047004.3,N
1512479015.4,286047001.7,N
1512479035.2,286047003.8,N
1512479055.1,286046999.7,N
1512479056.0,286046999.7,N
1512479075.8,286046999.3,N
1512479095.6,286046997.0,N
1512479115.4,286046998.3,N
1512479135.3,286046998.2,N
1512479155.1,286046999.8,N
1512479175.8,286046999.8,N
1512479195.7,286047002.3,N
1512479215.5,286046998.8,N
1512479235.3,286047001.0,N
1512479255.2,286047002.7,N
1512479275.9,286047001.5,N
1512479295.7,286047002.7,N
1512479315.6,286047001.7,N
1512479335.4,286046999.7,N
1512479355.2,286046998.4,N
1512479375.1,286046998.2,N
1512479376.0,286046998.2,N
1512479395.8,286046999.7,N
1512479415.6,286046999.9,N
1512479435.5,286046998.2,N
1512479455.3,286046997.7,N
1512479475.1,286046995.0,N
1512479495.8,286046993.6,N
1512479515.7,286046995.2,N
1512479535.5,286046994.9,N
1512479555.3,286046995.2,N
1512479575.2,286046995.5,N
1512479595.9,286046996.2,N
1512479615.7,286046992.1,Y
1512479635.6,286046991.9,P
1512479655.4,286046990.4,N
1512479675.2,286046990.7,N
1512479695.1,286046993.6,N
1512479696.0,286046993.6,N
1512479715.8,286046994.2,N
1512479735.6,286046991.7,Y
1512479755.5,286046997.0,P
1512479775.3,286046996.9,N
1512479795.1,286046999.5,N
1512479815.9,286046995.1,N
1512479835.7,286046996.4,N
1512479855.5,286046999.4,N
1512479875.4,286047000.4,N
1512479895.2,286047000.4,N
1512479915.0,286047001.1,N
1512479915.9,286047001.1,N
1512479935.8,286046997.7,N
1512479955.6,286046995.8,N
1512479975.4,286046994.8,N
1512479995.2,286046993.9,N
1512480015.1,286046996.5,N
1512480016.0,286046996.5,N
1512480035.8,286046998.2,N
1512480055.6,286047002.6,N
1512480075.5,286047004.4,N
1512480095.3,286047003.9,N
1512480115.1,286047001.9,N
1512480135.9,286046999.7,N
1512480155.7,286046996.6,N
1512480175.5,286046997.3,N
1512480195.4,286046996.9,N
1512480215.2,286046997.7,N
1512480235.0,286046997.6,N
1512480235.9,286046997.6,N
1512480255.8,286046996.6,N
1512480275.6,286046997.4,N
1512480295.4,286046994.1,N
1512480315.2,286046997.7,N
1512480335.1,286046997.1,N
1512480336.0,286046997.1,N
1512480355.8,286046993.4,N
1512480375.6,286046993.8,N
1512480395.5,286046990.6,Y
1512480415.3,286046996.2,P
1512480435.1,286046996.4,P
1512480455.9,286046992.5,P
1512480475.7,286046995.4,N
1512480495.5,286047000.4,N
1512480515.4,286047001.1,N
1512480535.2,286047002.0,N
1512480555.0,286047001.5,N
1512480555.9,286047001.5,N
1512480575.8,286047004.1,N
1512480595.6,286047005.7,N
1512480615.4,286047003.8,N
1512480635.3,286047004.1,N
1512480655.1,286047005.5,N
1512480656.0,286047005.5,N
1512480675.8,286047002.9,N
1512480695.7,286047004.9,N
1512480715.5,286047006.8,N
1512480735.3,286047010.5,N
1512480755.2,286047007.9,N
1512480775.9,286047001.3,N
1512480795.7,286046998.7,N
1512480815.5,286047000.7,N
1512480835.4,286047004.3,N
1512480855.2,286047005.1,N
1512480875.0,286047005.3,N
1512480875.9,286047005.3,N
1512480895.8,286047008.5,N
1512480915.6,286047005.6,N
1512480935.4,286047005.6,N
1512480955.3,286047004.2,N
1512480975.1,286046998.8,N
1512480976.0,286046998.8,N
1512480995.8,286047000.4,N
1512481015.7,286047000.1,N
1512481035.5,286047000.4,N
1512481055.3,286046999.4,N
1512481075.2,286046998.3,N
1512481095.9,286046999.7,N
1512481115.7,286047000.3,N
1512481135.5,286047000.9,N
1512481155.4,286047002.4,N
1512481175.2,286047001.4,N
1512481195.0,286047001.9,N
1512481195.9,286047001.9,N
1512481215.8,286047004.3,N
1512481235.6,286047000.1,N
1512481255.4,286046998.9,N
1512481275.3,286047001.3,N
1512481295.1,286047004.2,N
1512481296.0,286047004.2,N
1512481315.8,286047007.2,N
1512481335.7,286047002.9,N
1512481355.5,286047002.2,N
1512481375.3,286047005.5,N
1512481395.2,286047004.8,N
1512481415.9,286047008.0,N
1512481435.7,286047009.2,Y
1512481455.6,286047003.7,P
1512481475.4,286047000.8,N
1512481495.2,286047000.1,N
1512481515.0,286047001.2,N
1512481516.0,286047001.2,N
1512481535.8,286047000.9,N
1512481555.6,286046996.4,Y
1512481575.5,286046994.6,P
1512481595.3,286046993.8,N
1512481615.1,286046996.5,N
1512481635.8,286046997.2,N
1512481655.7,286046995.4,N
1512481675.5,286046998.0,N
1512481695.3,286046997.9,N
1512481715.2,286046995.6,N
1512481735.9,286046997.8,N
1512481755.7,286047000.3,N
1512481775.6,286047002.5,N
1512481795.4,286047002.6,N
1512481815.2,286047000.9,N
1512481835.1,286046999.4,N
1512481836.0,286046999.4,N
1512481855.8,286046997.4,N
1512481875.6,286046998.8,N
1512481895.5,286047002.8,N
1512481915.3,286047000.3,N
1512481935.1,286047001.8,N
1512481955.8,286047001.6,N
1512481975.7,286047000.0,N
1512481995.5,286047000.4,N
1512482015.3,286046999.9,N
1512482035.2,286047001.2,N
1512482055.9,286047002.6,N
1512482075.7,286046999.2,N
1512482095.6,286046998.9,N
1512482115.4,286046995.7,N
1512482135.2,286046995.3,N
1512482155.1,286046995.5,N
1512482156.0,286046995.5,N
1512482175.8,286046996.3,N
1512482195.6,286046994.8,N
1512482215.5,286046996.4,N
1512482235.3,286046997.7,N
1512482255.1,286047000.3,N
1512482275.8,286047000.1,N
1512482295.7,286046999.5,N
1512482315.5,286046997.2,N
1512482335.3,286046998.8,N
1512482355.2,286047001.1,N
1512482375.9,286046999.2,N
1512482395.7,286046997.9,N
